User: anonymous   Login
Location: Unspecified
(0.0000°N, 0.0000°E)
Time: 11:16:40
(UTC+00:00)
Language:

FAST - Orbit

View from above orbital plane
View from above orbital plane
View from above satellite
View from above satellite

Ground track
Ground track

The orbit data is extracted from the following two-line orbital elements,

1 24285U 96049A   18019.60059233 +.00001494 +00000-0 +12152-3 0  9998
2 24285 082.9586 245.7253 1874325 190.3984 165.2505 11.53004307875854
Epoch (UTC): 19 January 2018 14:24:51
Eccentricity: 0.1874325
inclination: 82.9586°
perigee height: 347 km
apogee height: 3449 km
right ascension of ascending node: 245.7253°
argument of perigee: 190.3984°
revolutions per day: 11.53004307
mean anomaly at epoch: 165.2505°
orbit number at epoch: 87585

The dashed part of the orbit path shows where the satellite is in the earth's shadow,  

DLR